Home > Weather > Jefferson City > Past weeks

Flag for USA Past Weather in Jefferson City, Missouri, USA — Yesterday and Last 2 Weeks

Now
82 °F

Sunny.


Feels Like: 83 °F
Forecast: 66 / 85 °F
Wind: 6 mph from Northwest

Location: Jefferson City Memorial Airport

Current Time: Jul 30, 2016 at 7:48:55 PM

Latest Report: Jul 30, 2016 at 6:53 PM


Visibility: 10 mi

Pressure: 29.91 "Hg

Humidity: 55%

Dew Point: 64 °F

Location of Jefferson CityLocation

Past Weather in Jefferson City — Graph

°F

Jefferson City Temperature Yesterday

Maximum temperature yesterday: 85 °F (at 4:53 PM)
Minimum temperature yesterday: 70 °F (at 4:53 AM)
Average temperature yesterday: 76 °F

High & Low Weather Summary for the Past Weeks

 TemperatureHumidityPressure
High97 °F (Jul 24, 4:53 PM)100% (Jul 19, 5:53 AM)30.17 "Hg (Jul 19, 5:53 AM)
Low67 °F (Jul 30, 3:53 AM)46% (Jul 23, 1:53 PM)29.82 "Hg (Jul 23, 6:53 PM)
Average81 °F76%29.98 "Hg
* Reported Jul 15 5:53 PM — Jul 30 5:53 PM, Jefferson City, Weather by CustomWeather, © 2016

Note: Actual official high and low records may vary slightly from our data, if they occured in-between our weather recording intervals... More about our weather records

Advertising

Jefferson City Weather History for the Previous 24 Hours

Scroll right to see more
 ConditionsComfort  
Time TempWeatherWind HumidityBarometerVisibility
5:53 PM
Sat, Jul 30
84 °FSunny.6 mph49%29.91 "Hg10 mi
4:53 PM84 °FSunny.8 mph51%29.93 "Hg10 mi
3:53 PM84 °FSunny.9 mph53%29.94 "Hg10 mi
2:53 PM84 °FSunny.7 mph55%29.95 "Hg10 mi
1:53 PM82 °FSunny.8 mph56%29.95 "Hg10 mi
12:53 PM82 °FSunny.8 mph58%29.97 "Hg10 mi
11:53 AM81 °FSunny.5 mph60%29.97 "Hg10 mi
10:53 AM80 °FPassing clouds.7 mph64%29.96 "Hg10 mi
9:53 AM78 °FSunny.No wind71%29.96 "Hg10 mi
8:53 AM73 °FSunny.No wind84%29.97 "Hg10 mi
8:01 AM70 °FScattered clouds.3 mph90%30.00 "Hg9 mi
7:53 AM69 °FPartly sunny.3 mph93%29.96 "Hg9 mi
6:53 AM67 °FPassing clouds.No wind93%29.95 "Hg10 mi
5:53 AM67 °FPassing clouds.No wind97%29.94 "Hg10 mi
4:53 AM67 °FPassing clouds.No wind93%29.93 "Hg10 mi
3:53 AM67 °FClear.No wind93%29.92 "Hg10 mi
2:53 AM68 °FClear.No wind93%29.92 "Hg10 mi
1:53 AM68 °FClear.No wind93%29.93 "Hg10 mi
12:53 AM70 °FClear.No wind90%29.93 "Hg10 mi
11:53 PM
Fri, Jul 29
71 °FClear.No wind87%29.93 "Hg10 mi
10:53 PM73 °FClear.3 mph81%29.92 "Hg10 mi
9:53 PM74 °FClear.3 mph82%29.91 "Hg10 mi
8:53 PM77 °FSunny.No wind71%29.89 "Hg10 mi
7:53 PM80 °FSunny.5 mph64%29.88 "Hg10 mi
Weather by CustomWeather, © 2016

See weather overviewHow to use our weather pages